Tracking 19177 objects as of 25-May-2018
HD Live streaming from Space Station
objects crossing your sky now

OBJECT H

Track OBJECT H now!
10-day predictions


NORAD ID: 43187
Int'l Code: 2018-014H
Perigee: 578.1 km
Apogee: 592.0 km
Inclination: 97.7 °
Period: 96.2 minutes
Semi major axis: 6956 km
RCS: Unknown
Launch date: February 1, 2018
Source: (TBD)
Launch site: VOSTOCHNY COSMODROME (VOSTO)

Note: This is SATELLITE DEBRIS
aabbcc
Your satellite tracking list
Your tracking list is empty




NASA's NSSDC Master Catalog

Two Line Element Set (TLE):
1 43187U 18014H   18144.68522558  .00000512  00000-0  50217-4 0  9993
2 43187  97.7263  53.4583 0009975 224.5496 135.4925 14.96442341 16801
Source of the keplerian elements: AFSPC